owner,sensor,date,latitude,longitude,vertical_datum,wind_speed,wind_to_direction,wind_speed_of_gust,qcFlag 
TCOON,ioos:station:TCOON:006:1,2008-01-01T00:00:00Z,27.8217,-97.2040,0.0,3.0,55.0,3.6,'11111222,11111222,11111222' 
TCOON,ioos:station:TCOON:006:1,2008-01-01T02:00:00Z,27.8217,-97.2040,0.0,2.0,34.0,3.1,'11111222,11111222,11111222' 
TCOON,ioos:station:TCOON:006:1,2008-01-01T03:00:00Z,27.8217,-97.2040,0.0,3.4,19.0,6.5,'11111222,11111222,11111222' 
TCOON,ioos:station:TCOON:006:1,2008-01-01T04:00:00Z,27.8217,-97.2040,0.0,3.5,21.0,7.8,'11111222,11111222,11111222' 
TCOON,ioos:station:TCOON:006:1,2008-01-01T05:00:00Z,27.8217,-97.2040,0.0,5.2,19.0,10.7,'11111222,11111222,11111222' 
TCOON,ioos:station:TCOON:006:1,2008-01-01T06:00:00Z,27.8217,-97.2040,0.0,5.1,20.0,9.4,'11111222,11111222,11111222' 
TCOON,ioos:station:TCOON:006:1,2008-01-01T07:00:00Z,27.8217,-97.2040,0.0,4.4,26.0,7.1,'11111222,11111222,11111222' 
TCOON,ioos:station:TCOON:006:1,2008-01-01T08:00:00Z,27.8217,-97.2040,0.0,4.8,19.0,9.9,'11111222,11111222,11111222' 
TCOON,ioos:station:TCOON:006:1,2008-01-01T09:00:00Z,27.8217,-97.2040,0.0,3.7,15.0,9.2,'11111222,11111222,11111222' 
TCOON,ioos:station:TCOON:006:1,2008-01-01T10:00:00Z,27.8217,-97.2040,0.0,3.6,18.0,10.2,'11111222,11111222,11111222' 
TCOON,ioos:station:TCOON:006:1,2008-01-01T11:00:00Z,27.8217,-97.2040,0.0,4.8,21.0,10.0,'11111222,11111222,11111222' 
TCOON,ioos:station:TCOON:006:1,2008-01-01T12:00:00Z,27.8217,-97.2040,0.0,4.2,22.0,9.6,'11111222,11111222,11111222' 
TCOON,ioos:station:TCOON:006:1,2008-01-01T13:00:00Z,27.8217,-97.2040,0.0,2.8,8.0,5.9,'11111222,11111222,11111222' 
TCOON,ioos:station:TCOON:006:1,2008-01-01T14:00:00Z,27.8217,-97.2040,0.0,3.3,23.0,8.7,'11111222,11111222,11111222' 
TCOON,ioos:station:TCOON:006:1,2008-01-01T15:00:00Z,27.8217,-97.2040,0.0,2.6,19.0,9.0,'11111222,11111222,11111222' 
TCOON,ioos:station:TCOON:006:1,2008-01-01T16:00:00Z,27.8217,-97.2040,0.0,2.8,9.0,9.0,'11111222,11111222,11111222' 
TCOON,ioos:station:TCOON:006:1,2008-01-01T17:00:00Z,27.8217,-97.2040,0.0,3.7,13.0,8.1,'11111222,11111222,11111222' 
TCOON,ioos:station:TCOON:006:1,2008-01-01T18:00:00Z,27.8217,-97.2040,0.0,2.7,351.0,6.6,'11111222,11111222,11111222' 
TCOON,ioos:station:TCOON:006:1,2008-01-01T19:00:00Z,27.8217,-97.2040,0.0,1.8,12.0,6.1,'11111222,11111222,11111222' 
TCOON,ioos:station:TCOON:006:1,2008-01-01T20:00:00Z,27.8217,-97.2040,0.0,2.5,10.0,5.1,'11111222,11111222,11111222' 
TCOON,ioos:station:TCOON:006:1,2008-01-01T21:00:00Z,27.8217,-97.2040,0.0,2.5,16.0,6.5,'11111222,11111222,11111222' 
TCOON,ioos:station:TCOON:006:1,2008-01-01T22:00:00Z,27.8217,-97.2040,0.0,2.0,12.0,4.1,'11111222,11111222,11111222' 
TCOON,ioos:station:TCOON:006:1,2008-01-01T23:00:00Z,27.8217,-97.2040,0.0,1.0,358.0,2.0,'11111222,11111222,11111222' 
TCOON,ioos:station:TCOON:006:1,2008-01-02T00:00:00Z,27.8217,-97.2040,0.0,1.0,2.0,2.3,'11111222,11111222,11111222' 
TCOON,ioos:station:TCOON:006:1,2008-01-02T01:00:00Z,27.8217,-97.2040,0.0,0.8,24.0,2.4,'11111222,11111222,11111222' 
TCOON,ioos:station:TCOON:006:1,2008-01-02T02:00:00Z,27.8217,-97.2040,0.0,0.9,9.0,2.6,'11111222,11111222,11111222' 
TCOON,ioos:station:TCOON:006:1,2008-01-02T03:00:00Z,27.8217,-97.2040,0.0,1.4,20.0,3.8,'11111222,11111222,11111222' 
TCOON,ioos:station:TCOON:006:1,2008-01-02T04:00:00Z,27.8217,-97.2040,0.0,1.5,25.0,2.5,'11111222,11111222,11111222' 
TCOON,ioos:station:TCOON:006:1,2008-01-02T05:00:00Z,27.8217,-97.2040,0.0,1.7,21.0,3.6,'11111222,11111222,11111222' 
TCOON,ioos:station:TCOON:006:1,2008-01-02T06:00:00Z,27.8217,-97.2040,0.0,0.7,15.0,1.7,'11111222,11111222,11111222' 
TCOON,ioos:station:TCOON:006:1,2008-01-02T07:00:00Z,27.8217,-97.2040,0.0,1.4,1.0,2.6,'11111222,11111222,11111222' 
TCOON,ioos:station:TCOON:006:1,2008-01-02T08:00:00Z,27.8217,-97.2040,0.0,2.5,342.0,3.6,'11111222,11111222,11111222' 
TCOON,ioos:station:TCOON:006:1,2008-01-02T09:00:00Z,27.8217,-97.2040,0.0,1.8,346.0,2.6,'11111222,11111222,11111222' 
TCOON,ioos:station:TCOON:006:1,2008-01-02T10:00:00Z,27.8217,-97.2040,0.0,1.1,1.0,2.4,'11111222,11111222,11111222' 
TCOON,ioos:station:TCOON:006:1,2008-01-02T11:00:00Z,27.8217,-97.2040,0.0,1.6,23.0,4.7,'11111222,11111222,11111222' 
TCOON,ioos:station:TCOON:006:1,2008-01-02T12:00:00Z,27.8217,-97.2040,0.0,1.3,11.0,2.8,'11111222,11111222,11111222' 
TCOON,ioos:station:TCOON:006:1,2008-01-02T13:00:00Z,27.8217,-97.2040,0.0,2.0,12.0,4.0,'11111222,11111222,11111222' 
TCOON,ioos:station:TCOON:006:1,2008-01-02T14:00:00Z,27.8217,-97.2040,0.0,2.9,26.0,5.8,'11111222,11111222,11111222' 
TCOON,ioos:station:TCOON:006:1,2008-01-02T15:00:00Z,27.8217,-97.2040,0.0,2.5,23.0,8.6,'11111222,11111222,11111222' 
TCOON,ioos:station:TCOON:006:1,2008-01-02T16:00:00Z,27.8217,-97.2040,0.0,3.2,22.0,6.9,'11111222,11111222,11111222' 
TCOON,ioos:station:TCOON:006:1,2008-01-02T17:00:00Z,27.8217,-97.2040,0.0,6.2,52.0,8.4,'11111222,11111222,11111222' 
TCOON,ioos:station:TCOON:006:1,2008-01-02T18:00:00Z,27.8217,-97.2040,0.0,5.7,55.0,7.8,'11111222,11111222,11111222' 
TCOON,ioos:station:TCOON:006:1,2008-01-02T19:00:00Z,27.8217,-97.2040,0.0,5.1,55.0,6.6,'11111222,11111222,11111222' 
TCOON,ioos:station:TCOON:006:1,2008-01-02T20:00:00Z,27.8217,-97.2040,0.0,2.6,60.0,5.6,'11111222,11111222,11111222' 
TCOON,ioos:station:TCOON:006:1,2008-01-02T21:00:00Z,27.8217,-97.2040,0.0,3.8,44.0,5.2,'11111222,11111222,11111222' 
TCOON,ioos:station:TCOON:006:1,2008-01-02T22:00:00Z,27.8217,-97.2040,0.0,3.2,45.0,5.2,'11111222,11111222,11111222' 
TCOON,ioos:station:TCOON:006:1,2008-01-02T23:00:00Z,27.8217,-97.2040,0.0,0.2,16.0,1.8,'11111222,11111222,11111222' 
TCOON,ioos:station:TCOON:006:1,2008-01-03T00:00:00Z,27.8217,-97.2040,0.0,1.8,21.0,3.7,'11111222,11111222,11111222' 
TCOON,ioos:station:TCOON:006:1,2008-01-03T01:00:00Z,27.8217,-97.2040,0.0,1.0,15.0,2.3,'11111222,11111222,11111222' 
TCOON,ioos:station:TCOON:006:1,2008-01-03T02:00:00Z,27.8217,-97.2040,0.0,1.2,22.0,2.7,'11111222,11111222,11111222' 
TCOON,ioos:station:TCOON:006:1,2008-01-03T03:00:00Z,27.8217,-97.2040,0.0,1.2,15.0,2.4,'11111222,11111222,11111222' 
TCOON,ioos:station:TCOON:006:1,2008-01-03T04:00:00Z,27.8217,-97.2040,0.0,1.8,19.0,4.0,'11111222,11111222,11111222' 
TCOON,ioos:station:TCOON:006:1,2008-01-03T05:00:00Z,27.8217,-97.2040,0.0,1.3,28.0,3.3,'11111222,11111222,11111222' 
TCOON,ioos:station:TCOON:006:1,2008-01-03T06:00:00Z,27.8217,-97.2040,0.0,1.3,9.0,2.4,'11111222,11111222,11111222' 
TCOON,ioos:station:TCOON:006:1,2008-01-03T07:00:00Z,27.8217,-97.2040,0.0,1.1,22.0,3.4,'11111222,11111222,11111222' 
TCOON,ioos:station:TCOON:006:1,2008-01-03T08:00:00Z,27.8217,-97.2040,0.0,3.0,344.0,3.8,'11111222,11111222,11111222' 
TCOON,ioos:station:TCOON:006:1,2008-01-03T09:00:00Z,27.8217,-97.2040,0.0,1.7,1.0,2.9,'11111222,11111222,11111222' 
TCOON,ioos:station:TCOON:006:1,2008-01-03T10:00:00Z,27.8217,-97.2040,0.0,1.2,10.0,2.3,'11111222,11111222,11111222' 
TCOON,ioos:station:TCOON:006:1,2008-01-03T11:00:00Z,27.8217,-97.2040,0.0,1.2,5.0,2.5,'11111222,11111222,11111222' 
TCOON,ioos:station:TCOON:006:1,2008-01-03T12:00:00Z,27.8217,-97.2040,0.0,1.9,350.0,2.6,'11111222,11111222,11111222' 
TCOON,ioos:station:TCOON:006:1,2008-01-03T13:00:00Z,27.8217,-97.2040,0.0,1.2,5.0,2.9,'11111222,11111222,11111222' 
TCOON,ioos:station:TCOON:006:1,2008-01-03T14:00:00Z,27.8217,-97.2040,0.0,3.6,24.0,6.3,'11111222,11111222,11111222' 
TCOON,ioos:station:TCOON:006:1,2008-01-03T15:00:00Z,27.8217,-97.2040,0.0,4.8,28.0,6.9,'11111222,11111222,11111222' 
TCOON,ioos:station:TCOON:006:1,2008-01-03T16:00:00Z,27.8217,-97.2040,0.0,5.1,29.0,7.4,'11111222,11111222,11111222' 
TCOON,ioos:station:TCOON:006:1,2008-01-03T17:00:00Z,27.8217,-97.2040,0.0,4.2,38.0,7.6,'11111222,11111222,11111222' 
TCOON,ioos:station:TCOON:006:1,2008-01-03T18:00:00Z,27.8217,-97.2040,0.0,3.6,40.0,6.8,'11111222,11111222,11111222' 
TCOON,ioos:station:TCOON:006:1,2008-01-03T19:00:00Z,27.8217,-97.2040,0.0,3.6,41.0,6.6,'11111222,11111222,11111222' 
TCOON,ioos:station:TCOON:006:1,2008-01-03T20:00:00Z,27.8217,-97.2040,0.0,4.3,82.0,6.2,'11111222,11111222,11111222' 
TCOON,ioos:station:TCOON:006:1,2008-01-03T21:00:00Z,27.8217,-97.2040,0.0,4.0,80.0,5.4,'11111222,11111222,11111222' 
TCOON,ioos:station:TCOON:006:1,2008-01-03T22:00:00Z,27.8217,-97.2040,0.0,3.8,81.0,5.4,'11111222,11111222,11111222' 
TCOON,ioos:station:TCOON:006:1,2008-01-03T23:00:00Z,27.8217,-97.2040,0.0,2.5,68.0,3.8,'11111222,11111222,11111222' 
TCOON,ioos:station:TCOON:006:1,2008-01-04T00:00:00Z,27.8217,-97.2040,0.0,2.9,53.0,3.9,'11111222,11111222,11111222' 
TCOON,ioos:station:TCOON:006:1,2008-01-04T01:00:00Z,27.8217,-97.2040,0.0,1.0,31.0,1.8,'11111222,11111222,11111222' 
TCOON,ioos:station:TCOON:006:1,2008-01-04T02:00:00Z,27.8217,-97.2040,0.0,1.6,21.0,2.0,'11111222,11111222,11111222' 
TCOON,ioos:station:TCOON:006:1,2008-01-04T03:00:00Z,27.8217,-97.2040,0.0,1.1,81.0,1.8,'11111222,11111222,11111222' 
TCOON,ioos:station:TCOON:006:1,2008-01-04T04:00:00Z,27.8217,-97.2040,0.0,2.2,107.0,3.1,'11111222,11111222,11111222' 
TCOON,ioos:station:TCOON:006:1,2008-01-04T05:00:00Z,27.8217,-97.2040,0.0,2.8,128.0,4.3,'11111222,11111222,11111222' 
TCOON,ioos:station:TCOON:006:1,2008-01-04T06:00:00Z,27.8217,-97.2040,0.0,2.3,129.0,3.4,'11111222,11111222,11111222' 
TCOON,ioos:station:TCOON:006:1,2008-01-04T07:00:00Z,27.8217,-97.2040,0.0,1.1,117.0,1.8,'11111222,11111222,11111222' 
TCOON,ioos:station:TCOON:006:1,2008-01-04T08:00:00Z,27.8217,-97.2040,0.0,1.8,141.0,2.1,'11111222,11111222,11111222' 
TCOON,ioos:station:TCOON:006:1,2008-01-04T09:00:00Z,27.8217,-97.2040,0.0,0.8,86.0,1.0,'11111222,11111222,11111222' 
TCOON,ioos:station:TCOON:006:1,2008-01-04T10:00:00Z,27.8217,-97.2040,0.0,1.0,54.0,1.2,'11111222,11111222,11111222' 
TCOON,ioos:station:TCOON:006:1,2008-01-04T11:00:00Z,27.8217,-97.2040,0.0,0.8,41.0,0.9,'11111222,11111222,11111222' 
TCOON,ioos:station:TCOON:006:1,2008-01-04T12:00:00Z,27.8217,-97.2040,0.0,1.6,26.0,2.0,'11111222,11111222,11111222' 
TCOON,ioos:station:TCOON:006:1,2008-01-04T13:00:00Z,27.8217,-97.2040,0.0,1.4,12.0,2.1,'11111222,11111222,11111222' 
TCOON,ioos:station:TCOON:006:1,2008-01-04T14:00:00Z,27.8217,-97.2040,0.0,1.0,62.0,2.2,'11111222,11111222,11111222' 
TCOON,ioos:station:TCOON:006:1,2008-01-04T15:00:00Z,27.8217,-97.2040,0.0,1.5,77.0,2.3,'11111222,11111222,11111222' 
TCOON,ioos:station:TCOON:006:1,2008-01-04T16:00:00Z,27.8217,-97.2040,0.0,3.7,114.0,4.4,'11111222,11111222,11111222' 
TCOON,ioos:station:TCOON:006:1,2008-01-04T17:00:00Z,27.8217,-97.2040,0.0,3.7,109.0,4.3,'11111222,11111222,11111222' 
TCOON,ioos:station:TCOON:006:1,2008-01-04T18:00:00Z,27.8217,-97.2040,0.0,4.5,119.0,5.5,'11111222,11111222,11111222' 
TCOON,ioos:station:TCOON:006:1,2008-01-04T19:00:00Z,27.8217,-97.2040,0.0,5.1,125.0,6.9,'11111222,11111222,11111222' 
TCOON,ioos:station:TCOON:006:1,2008-01-04T20:00:00Z,27.8217,-97.2040,0.0,5.2,124.0,6.8,'11111222,11111222,11111222' 
TCOON,ioos:station:TCOON:006:1,2008-01-04T21:00:00Z,27.8217,-97.2040,0.0,4.0,131.0,5.2,'11111222,11111222,11111222' 
TCOON,ioos:station:TCOON:006:1,2008-01-04T22:00:00Z,27.8217,-97.2040,0.0,3.6,118.0,5.0,'11111222,11111222,11111222' 
TCOON,ioos:station:TCOON:006:1,2008-01-04T23:00:00Z,27.8217,-97.2040,0.0,2.4,119.0,3.1,'11111222,11111222,11111222' 
TCOON,ioos:station:TCOON:006:1,2008-01-05T00:00:00Z,27.8217,-97.2040,0.0,3.6,155.0,5.1,'11111222,11111222,11111222' 
TCOON,ioos:station:TCOON:006:1,2008-01-05T01:00:00Z,27.8217,-97.2040,0.0,2.8,149.0,3.3,'11111222,11111222,11111222' 
TCOON,ioos:station:TCOON:006:1,2008-01-05T02:00:00Z,27.8217,-97.2040,0.0,2.0,123.0,3.3,'11111222,11111222,11111222' 
TCOON,ioos:station:TCOON:006:1,2008-01-05T03:00:00Z,27.8217,-97.2040,0.0,2.4,111.0,3.7,'11111222,11111222,11111222' 
TCOON,ioos:station:TCOON:006:1,2008-01-05T04:00:00Z,27.8217,-97.2040,0.0,4.7,146.0,6.0,'11111222,11111222,11111222' 
TCOON,ioos:station:TCOON:006:1,2008-01-05T05:00:00Z,27.8217,-97.2040,0.0,2.8,180.0,3.6,'11111222,11111222,11111222' 
TCOON,ioos:station:TCOON:006:1,2008-01-05T06:00:00Z,27.8217,-97.2040,0.0,2.4,190.0,2.9,'11111222,11111222,11111222' 
TCOON,ioos:station:TCOON:006:1,2008-01-05T07:00:00Z,27.8217,-97.2040,0.0,2.0,193.0,2.9,'11111222,11111222,11111222' 
TCOON,ioos:station:TCOON:006:1,2008-01-05T08:00:00Z,27.8217,-97.2040,0.0,3.0,163.0,3.4,'11111222,11111222,11111222' 
TCOON,ioos:station:TCOON:006:1,2008-01-05T09:00:00Z,27.8217,-97.2040,0.0,2.4,159.0,3.3,'11111222,11111222,11111222' 
TCOON,ioos:station:TCOON:006:1,2008-01-05T10:00:00Z,27.8217,-97.2040,0.0,1.8,154.0,2.8,'11111222,11111222,11111222' 
TCOON,ioos:station:TCOON:006:1,2008-01-05T11:00:00Z,27.8217,-97.2040,0.0,1.6,174.0,2.7,'11111222,11111222,11111222' 
TCOON,ioos:station:TCOON:006:1,2008-01-05T12:00:00Z,27.8217,-97.2040,0.0,1.4,174.0,2.0,'11111222,11111222,11111222' 
TCOON,ioos:station:TCOON:006:1,2008-01-05T13:00:00Z,27.8217,-97.2040,0.0,1.2,184.0,1.8,'11111222,11111222,11111222' 
TCOON,ioos:station:TCOON:006:1,2008-01-05T14:00:00Z,27.8217,-97.2040,0.0,1.5,122.0,1.7,'11111222,11111222,11111222' 
TCOON,ioos:station:TCOON:006:1,2008-01-05T15:00:00Z,27.8217,-97.2040,0.0,2.2,162.0,3.3,'11111222,11111222,11111222' 
TCOON,ioos:station:TCOON:006:1,2008-01-05T16:00:00Z,27.8217,-97.2040,0.0,2.8,176.0,3.4,'11111222,11111222,11111222' 
TCOON,ioos:station:TCOON:006:1,2008-01-05T17:00:00Z,27.8217,-97.2040,0.0,2.5,152.0,3.5,'11111222,11111222,11111222' 
TCOON,ioos:station:TCOON:006:1,2008-01-05T18:00:00Z,27.8217,-97.2040,0.0,3.7,159.0,5.2,'11111222,11111222,11111222' 
TCOON,ioos:station:TCOON:006:1,2008-01-05T19:00:00Z,27.8217,-97.2040,0.0,3.6,140.0,5.3,'11111222,11111222,11111222' 
TCOON,ioos:station:TCOON:006:1,2008-01-05T20:00:00Z,27.8217,-97.2040,0.0,3.9,137.0,5.5,'11111222,11111222,11111222' 
TCOON,ioos:station:TCOON:006:1,2008-01-05T21:00:00Z,27.8217,-97.2040,0.0,4.3,138.0,5.3,'11111222,11111222,11111222' 
TCOON,ioos:station:TCOON:006:1,2008-01-05T22:00:00Z,27.8217,-97.2040,0.0,6.1,144.0,7.9,'11111222,11111222,11111222' 
TCOON,ioos:station:TCOON:006:1,2008-01-05T23:00:00Z,27.8217,-97.2040,0.0,6.2,146.0,7.8,'11111222,11111222,11111222' 
TCOON,ioos:station:TCOON:006:1,2008-01-06T00:00:00Z,27.8217,-97.2040,0.0,5.1,151.0,6.7,'11111222,11111222,11111222' 
TCOON,ioos:station:TCOON:006:1,2008-01-06T01:00:00Z,27.8217,-97.2040,0.0,5.4,142.0,7.6,'11111222,11111222,11111222' 
TCOON,ioos:station:TCOON:006:1,2008-01-06T02:00:00Z,27.8217,-97.2040,0.0,5.1,147.0,6.6,'11111222,11111222,11111222' 
TCOON,ioos:station:TCOON:006:1,2008-01-06T03:00:00Z,27.8217,-97.2040,0.0,4.4,142.0,5.9,'11111222,11111222,11111222' 
TCOON,ioos:station:TCOON:006:1,2008-01-06T04:00:00Z,27.8217,-97.2040,0.0,3.4,141.0,5.1,'11111222,11111222,11111222' 
TCOON,ioos:station:TCOON:006:1,2008-01-06T05:00:00Z,27.8217,-97.2040,0.0,4.9,149.0,7.0,'11111222,11111222,11111222' 
TCOON,ioos:station:TCOON:006:1,2008-01-06T06:00:00Z,27.8217,-97.2040,0.0,4.5,156.0,5.7,'11111222,11111222,11111222' 
TCOON,ioos:station:TCOON:006:1,2008-01-06T07:00:00Z,27.8217,-97.2040,0.0,3.9,156.0,5.3,'11111222,11111222,11111222' 
TCOON,ioos:station:TCOON:006:1,2008-01-06T08:00:00Z,27.8217,-97.2040,0.0,4.5,167.0,5.4,'11111222,11111222,11111222' 
TCOON,ioos:station:TCOON:006:1,2008-01-06T09:00:00Z,27.8217,-97.2040,0.0,3.9,162.0,5.3,'11111222,11111222,11111222' 
TCOON,ioos:station:TCOON:006:1,2008-01-06T10:00:00Z,27.8217,-97.2040,0.0,3.8,168.0,4.6,'11111222,11111222,11111222' 
TCOON,ioos:station:TCOON:006:1,2008-01-06T11:00:00Z,27.8217,-97.2040,0.0,2.9,150.0,4.2,'11111222,11111222,11111222' 
TCOON,ioos:station:TCOON:006:1,2008-01-06T12:00:00Z,27.8217,-97.2040,0.0,2.7,152.0,4.3,'11111222,11111222,11111222' 
TCOON,ioos:station:TCOON:006:1,2008-01-06T13:00:00Z,27.8217,-97.2040,0.0,3.9,139.0,5.8,'11111222,11111222,11111222' 
TCOON,ioos:station:TCOON:006:1,2008-01-06T14:00:00Z,27.8217,-97.2040,0.0,4.4,136.0,5.6,'11111222,11111222,11111222' 
TCOON,ioos:station:TCOON:006:1,2008-01-06T15:00:00Z,27.8217,-97.2040,0.0,4.3,136.0,5.9,'11111222,11111222,11111222' 
TCOON,ioos:station:TCOON:006:1,2008-01-06T16:00:00Z,27.8217,-97.2040,0.0,4.8,138.0,6.4,'11111222,11111222,11111222' 
TCOON,ioos:station:TCOON:006:1,2008-01-06T17:00:00Z,27.8217,-97.2040,0.0,5.9,143.0,7.2,'11111222,11111222,11111222' 
TCOON,ioos:station:TCOON:006:1,2008-01-06T18:00:00Z,27.8217,-97.2040,0.0,4.0,171.0,5.7,'11111222,11111222,11111222' 
TCOON,ioos:station:TCOON:006:1,2008-01-06T19:00:00Z,27.8217,-97.2040,0.0,4.6,144.0,5.9,'11111222,11111222,11111222' 
TCOON,ioos:station:TCOON:006:1,2008-01-06T20:00:00Z,27.8217,-97.2040,0.0,3.4,139.0,5.4,'11111222,11111222,11111222' 
TCOON,ioos:station:TCOON:006:1,2008-01-06T21:00:00Z,27.8217,-97.2040,0.0,5.4,141.0,7.1,'11111222,11111222,11111222' 
TCOON,ioos:station:TCOON:006:1,2008-01-06T22:00:00Z,27.8217,-97.2040,0.0,5.0,139.0,6.6,'11111222,11111222,11111222' 
TCOON,ioos:station:TCOON:006:1,2008-01-06T23:00:00Z,27.8217,-97.2040,0.0,5.3,129.0,6.9,'11111222,11111222,11111222' 
TCOON,ioos:station:TCOON:006:1,2008-01-07T00:00:00Z,27.8217,-97.2040,0.0,5.8,124.0,7.1,'11111222,11111222,11111222' 
TCOON,ioos:station:TCOON:006:1,2008-01-07T01:00:00Z,27.8217,-97.2040,0.0,4.4,124.0,5.5,'11111222,11111222,11111222' 
TCOON,ioos:station:TCOON:006:1,2008-01-07T02:00:00Z,27.8217,-97.2040,0.0,3.4,111.0,4.0,'11111222,11111222,11111222' 
TCOON,ioos:station:TCOON:006:1,2008-01-07T03:00:00Z,27.8217,-97.2040,0.0,3.2,110.0,4.6,'11111222,11111222,11111222' 
TCOON,ioos:station:TCOON:006:1,2008-01-07T04:00:00Z,27.8217,-97.2040,0.0,4.9,129.0,6.2,'11111222,11111222,11111222' 
TCOON,ioos:station:TCOON:006:1,2008-01-07T05:00:00Z,27.8217,-97.2040,0.0,5.8,133.0,7.6,'11111222,11111222,11111222' 
TCOON,ioos:station:TCOON:006:1,2008-01-07T06:00:00Z,27.8217,-97.2040,0.0,4.7,144.0,7.1,'11111222,11111222,11111222' 
TCOON,ioos:station:TCOON:006:1,2008-01-07T07:00:00Z,27.8217,-97.2040,0.0,4.9,138.0,6.5,'11111222,11111222,11111222' 
TCOON,ioos:station:TCOON:006:1,2008-01-07T08:00:00Z,27.8217,-97.2040,0.0,5.4,147.0,7.1,'11111222,11111222,11111222' 
TCOON,ioos:station:TCOON:006:1,2008-01-07T09:00:00Z,27.8217,-97.2040,0.0,4.2,132.0,5.6,'11111222,11111222,11111222' 
TCOON,ioos:station:TCOON:006:1,2008-01-07T10:00:00Z,27.8217,-97.2040,0.0,3.5,129.0,4.9,'11111222,11111222,11111222' 
TCOON,ioos:station:TCOON:006:1,2008-01-07T11:00:00Z,27.8217,-97.2040,0.0,4.7,129.0,6.7,'11111222,11111222,11111222' 
TCOON,ioos:station:TCOON:006:1,2008-01-07T12:00:00Z,27.8217,-97.2040,0.0,2.5,122.0,3.8,'11111222,11111222,11111222' 
TCOON,ioos:station:TCOON:006:1,2008-01-07T13:00:00Z,27.8217,-97.2040,0.0,2.9,94.0,5.3,'11111222,11111222,11111222' 
TCOON,ioos:station:TCOON:006:1,2008-01-07T14:00:00Z,27.8217,-97.2040,0.0,2.6,100.0,5.0,'11111222,11111222,11111222' 
TCOON,ioos:station:TCOON:006:1,2008-01-07T15:00:00Z,27.8217,-97.2040,0.0,3.4,108.0,6.3,'11111222,11111222,11111222' 
TCOON,ioos:station:TCOON:006:1,2008-01-07T16:00:00Z,27.8217,-97.2040,0.0,4.1,106.0,6.8,'11111222,11111222,11111222' 
TCOON,ioos:station:TCOON:006:1,2008-01-07T17:00:00Z,27.8217,-97.2040,0.0,3.9,114.0,6.7,'11111222,11111222,11111222' 
TCOON,ioos:station:TCOON:006:1,2008-01-07T18:00:00Z,27.8217,-97.2040,0.0,4.8,122.0,7.4,'11111222,11111222,11111222' 
TCOON,ioos:station:TCOON:006:1,2008-01-07T19:00:00Z,27.8217,-97.2040,0.0,5.4,123.0,7.9,'11111222,11111222,11111222' 
TCOON,ioos:station:TCOON:006:1,2008-01-07T20:00:00Z,27.8217,-97.2040,0.0,5.6,133.0,7.7,'11111222,11111222,11111222' 
TCOON,ioos:station:TCOON:006:1,2008-01-07T21:00:00Z,27.8217,-97.2040,0.0,5.9,127.0,8.6,'11111222,11111222,11111222' 
TCOON,ioos:station:TCOON:006:1,2008-01-07T22:00:00Z,27.8217,-97.2040,0.0,5.9,133.0,8.9,'11111222,11111222,11111222' 
TCOON,ioos:station:TCOON:006:1,2008-01-07T23:00:00Z,27.8217,-97.2040,0.0,4.1,134.0,6.2,'11111222,11111222,11111222' 
TCOON,ioos:station:TCOON:006:1,2008-01-08T00:00:00Z,27.8217,-97.2040,0.0,4.3,138.0,6.2,'11111222,11111222,11111222' 
TCOON,ioos:station:TCOON:006:1,2008-01-08T01:00:00Z,27.8217,-97.2040,0.0,4.3,132.0,6.5,'11111222,11111222,11111222' 
TCOON,ioos:station:TCOON:006:1,2008-01-08T02:00:00Z,27.8217,-97.2040,0.0,4.4,133.0,6.8,'11111222,11111222,11111222' 
TCOON,ioos:station:TCOON:006:1,2008-01-08T03:00:00Z,27.8217,-97.2040,0.0,3.8,135.0,5.8,'11111222,11111222,11111222' 
TCOON,ioos:station:TCOON:006:1,2008-01-08T04:00:00Z,27.8217,-97.2040,0.0,3.6,138.0,4.9,'11111222,11111222,11111222' 
TCOON,ioos:station:TCOON:006:1,2008-01-08T05:00:00Z,27.8217,-97.2040,0.0,4.1,126.0,7.3,'11111222,11111222,11111222' 
TCOON,ioos:station:TCOON:006:1,2008-01-08T06:00:00Z,27.8217,-97.2040,0.0,3.4,127.0,5.4,'11111222,11111222,11111222' 
TCOON,ioos:station:TCOON:006:1,2008-01-08T07:00:00Z,27.8217,-97.2040,0.0,3.7,121.0,4.9,'11111222,11111222,11111222' 
TCOON,ioos:station:TCOON:006:1,2008-01-08T08:00:00Z,27.8217,-97.2040,0.0,4.4,122.0,6.6,'11111222,11111222,11111222' 
TCOON,ioos:station:TCOON:006:1,2008-01-08T09:00:00Z,27.8217,-97.2040,0.0,3.4,130.0,5.0,'11111222,11111222,11111222' 
TCOON,ioos:station:TCOON:006:1,2008-01-08T10:00:00Z,27.8217,-97.2040,0.0,2.9,130.0,4.4,'11111222,11111222,11111222' 
TCOON,ioos:station:TCOON:006:1,2008-01-08T11:00:00Z,27.8217,-97.2040,0.0,3.2,127.0,4.8,'11111222,11111222,11111222' 
TCOON,ioos:station:TCOON:006:1,2008-01-08T12:00:00Z,27.8217,-97.2040,0.0,4.2,127.0,6.3,'11111222,11111222,11111222' 
TCOON,ioos:station:TCOON:006:1,2008-01-08T13:00:00Z,27.8217,-97.2040,0.0,2.9,114.0,5.0,'11111222,11111222,11111222' 
TCOON,ioos:station:TCOON:006:1,2008-01-08T14:00:00Z,27.8217,-97.2040,0.0,2.2,188.0,2.3,'11111222,11111222,11111222' 
TCOON,ioos:station:TCOON:006:1,2008-01-08T15:00:00Z,27.8217,-97.2040,0.0,1.0,167.0,1.9,'11111222,11111222,11111222' 
TCOON,ioos:station:TCOON:006:1,2008-01-08T16:00:00Z,27.8217,-97.2040,0.0,1.2,95.0,1.8,'11111222,11111222,11111222' 
TCOON,ioos:station:TCOON:006:1,2008-01-08T17:00:00Z,27.8217,-97.2040,0.0,1.6,151.0,2.5,'11111222,11111222,11111222' 
TCOON,ioos:station:TCOON:006:1,2008-01-08T18:00:00Z,27.8217,-97.2040,0.0,0.9,85.0,1.2,'11111222,11111222,11111222' 
TCOON,ioos:station:TCOON:006:1,2008-01-08T19:00:00Z,27.8217,-97.2040,0.0,1.1,86.0,2.0,'11111222,11111222,11111222' 
TCOON,ioos:station:TCOON:006:1,2008-01-08T20:00:00Z,27.8217,-97.2040,0.0,1.8,158.0,2.1,'11111222,11111222,11111222' 
TCOON,ioos:station:TCOON:006:1,2008-01-08T21:00:00Z,27.8217,-97.2040,0.0,0.8,85.0,2.6,'11111222,11111222,11111222' 
TCOON,ioos:station:TCOON:006:1,2008-01-08T22:00:00Z,27.8217,-97.2040,0.0,1.9,55.0,2.6,'11111222,11111222,11111222' 
TCOON,ioos:station:TCOON:006:1,2008-01-08T23:00:00Z,27.8217,-97.2040,0.0,3.4,25.0,7.5,'11111222,11111222,11111222' 
TCOON,ioos:station:TCOON:006:1,2008-01-09T00:00:00Z,27.8217,-97.2040,0.0,4.4,25.0,6.6,'11111222,11111222,11111222' 
TCOON,ioos:station:TCOON:006:1,2008-01-09T01:00:00Z,27.8217,-97.2040,0.0,2.8,23.0,5.8,'11111222,11111222,11111222' 
TCOON,ioos:station:TCOON:006:1,2008-01-09T02:00:00Z,27.8217,-97.2040,0.0,2.3,17.0,5.2,'11111222,11111222,11111222' 
TCOON,ioos:station:TCOON:006:1,2008-01-09T03:00:00Z,27.8217,-97.2040,0.0,2.6,21.0,6.0,'11111222,11111222,11111222' 
TCOON,ioos:station:TCOON:006:1,2008-01-09T04:00:00Z,27.8217,-97.2040,0.0,1.5,18.0,5.0,'11111222,11111222,11111222' 
TCOON,ioos:station:TCOON:006:1,2008-01-09T05:00:00Z,27.8217,-97.2040,0.0,2.0,17.0,6.3,'11111222,11111222,11111222' 
TCOON,ioos:station:TCOON:006:1,2008-01-09T06:00:00Z,27.8217,-97.2040,0.0,1.7,15.0,5.0,'11111222,11111222,11111222' 
TCOON,ioos:station:TCOON:006:1,2008-01-09T07:00:00Z,27.8217,-97.2040,0.0,2.5,21.0,5.2,'11111222,11111222,11111222' 
TCOON,ioos:station:TCOON:006:1,2008-01-09T08:00:00Z,27.8217,-97.2040,0.0,2.0,17.0,4.5,'11111222,11111222,11111222' 
TCOON,ioos:station:TCOON:006:1,2008-01-09T09:00:00Z,27.8217,-97.2040,0.0,2.4,4.0,5.3,'11111222,11111222,11111222' 
TCOON,ioos:station:TCOON:006:1,2008-01-09T10:00:00Z,27.8217,-97.2040,0.0,2.2,9.0,4.4,'11111222,11111222,11111222' 
TCOON,ioos:station:TCOON:006:1,2008-01-09T11:00:00Z,27.8217,-97.2040,0.0,2.5,12.0,5.5,'11111222,11111222,11111222' 
TCOON,ioos:station:TCOON:006:1,2008-01-09T12:00:00Z,27.8217,-97.2040,0.0,1.4,358.0,3.5,'11111222,11111222,11111222' 
TCOON,ioos:station:TCOON:006:1,2008-01-09T13:00:00Z,27.8217,-97.2040,0.0,1.5,19.0,2.7,'11111222,11111222,11111222' 